TimeCST,TemperatureF,Dew PointF,Humidity,Sea Level PressureIn,VisibilityMPH,Wind Direction,Wind SpeedMPH,Gust SpeedMPH,PrecipitationIn,Events,Conditions,WindDirDegrees,DateUTC
12:13 AM,-9.9,-15.3,77,30.26,10.0,Calm,Calm,-,N/A,,Clear,0,2014-01-05 06:13:00
12:32 AM,-10.5,-15.7,78,30.26,10.0,West,3.5,-,N/A,,Clear,280,2014-01-05 06:32:00
12:53 AM,-11.4,-16.2,79,30.26,10.0,West,4.6,-,N/A,,Clear,280,2014-01-05 06:53:00
1:12 AM,-11.6,-16.8,78,30.26,10.0,WNW,3.5,-,N/A,,Clear,290,2014-01-05 07:12:00
1:33 AM,-12.1,-17.5,77,30.27,10.0,WNW,4.6,-,N/A,,Clear,290,2014-01-05 07:33:00
1:53 AM,-13.7,-19.3,76,30.28,10.0,West,5.8,-,N/A,,Clear,270,2014-01-05 07:53:00
2:12 AM,-13.5,-18.9,77,30.28,10.0,West,3.5,-,N/A,,Clear,270,2014-01-05 08:12:00
2:32 AM,-13.5,-18.9,77,30.29,10.0,West,4.6,-,N/A,,Clear,270,2014-01-05 08:32:00
2:53 AM,-14.3,-19.5,77,30.29,10.0,West,4.6,-,N/A,,Clear,270,2014-01-05 08:53:00
3:12 AM,-15.0,-20.0,78,30.29,10.0,Calm,Calm,-,N/A,,Clear,0,2014-01-05 09:12:00
3:32 AM,-16.1,-21.5,77,30.29,10.0,West,3.5,-,N/A,,Clear,280,2014-01-05 09:32:00
3:52 AM,-16.8,-22.0,77,30.30,10.0,Calm,Calm,-,N/A,,Clear,0,2014-01-05 09:52:00
4:12 AM,-18.8,-24.0,77,30.30,10.0,West,4.6,-,N/A,,Clear,270,2014-01-05 10:12:00
4:32 AM,-17.9,-23.3,76,30.30,10.0,West,5.8,-,N/A,,Clear,260,2014-01-05 10:32:00
4:52 AM,-19.7,-25.1,76,30.30,10.0,West,5.8,-,N/A,,Clear,270,2014-01-05 10:52:00
5:12 AM,-17.5,-22.9,76,30.30,10.0,West,4.6,-,N/A,,Clear,270,2014-01-05 11:12:00
5:32 AM,-17.9,-23.3,76,30.31,10.0,WSW,4.6,-,N/A,,Clear,250,2014-01-05 11:32:00
5:53 AM,-20.4,-26.7,73,30.32,10.0,WSW,5.8,-,N/A,,Clear,250,2014-01-05 11:53:00
6:13 AM,-20.0,-26.0,74,30.32,10.0,WSW,5.8,-,N/A,,Clear,250,2014-01-05 12:13:00
6:32 AM,-19.3,-25.1,75,30.33,10.0,WSW,4.6,-,N/A,,Clear,240,2014-01-05 12:32:00
6:52 AM,-17.7,-24.0,73,30.33,10.0,WSW,4.6,-,N/A,,Clear,240,2014-01-05 12:52:00
7:13 AM,-17.3,-23.1,75,30.33,10.0,SW,5.8,-,N/A,,Clear,230,2014-01-05 13:13:00
7:32 AM,-17.7,-24.0,73,30.34,10.0,WSW,4.6,-,N/A,,Clear,240,2014-01-05 13:32:00
7:52 AM,-21.1,-27.2,73,30.34,10.0,Calm,Calm,-,N/A,,Clear,0,2014-01-05 13:52:00
8:13 AM,-22.0,-27.9,74,30.34,10.0,WSW,6.9,-,N/A,,Clear,250,2014-01-05 14:13:00
8:32 AM,-20.0,-25.6,75,30.35,10.0,West,5.8,-,N/A,,Clear,260,2014-01-05 14:32:00
8:52 AM,-18.8,-24.5,75,30.36,10.0,WSW,4.6,-,N/A,,Clear,250,2014-01-05 14:52:00
9:13 AM,-17.1,-23.1,74,30.36,10.0,Calm,Calm,-,N/A,,Clear,0,2014-01-05 15:13:00
9:32 AM,-15.2,-20.7,76,30.36,10.0,Calm,Calm,-,N/A,,Clear,0,2014-01-05 15:32:00
9:52 AM,-13.2,-18.8,76,30.36,10.0,West,8.1,-,N/A,,Clear,270,2014-01-05 15:52:00
10:11 AM,-11.6,-17.9,74,30.37,10.0,West,8.1,-,N/A,,Clear,280,2014-01-05 16:11:00
10:32 AM,-11.2,-18.4,70,30.37,10.0,WNW,10.4,-,N/A,,Clear,290,2014-01-05 16:32:00
10:52 AM,-11.2,-18.8,69,30.36,10.0,WNW,10.4,-,N/A,,Clear,290,2014-01-05 16:52:00
11:12 AM,-10.8,-18.9,67,30.36,10.0,WNW,11.5,-,N/A,,Clear,290,2014-01-05 17:12:00
11:32 AM,-10.5,-19.3,65,30.35,10.0,WNW,10.4,-,N/A,,Clear,290,2014-01-05 17:32:00
11:52 AM,-10.1,-19.3,64,30.34,10.0,WNW,12.7,-,N/A,,Clear,290,2014-01-05 17:52:00
12:13 PM,-9.4,-18.9,63,30.34,10.0,WNW,17.3,20.7,N/A,,Clear,290,2014-01-05 18:13:00
12:32 PM,-9.2,-18.8,63,30.33,10.0,WNW,17.3,20.7,N/A,,Clear,290,2014-01-05 18:32:00
12:53 PM,-9.4,-19.3,62,30.32,10.0,WNW,12.7,18.4,N/A,,Clear,300,2014-01-05 18:53:00
1:13 PM,-9.4,-19.8,60,30.32,10.0,WNW,15.0,20.7,N/A,,Clear,300,2014-01-05 19:13:00
1:32 PM,-10.1,-20.4,61,30.32,10.0,NW,17.3,23.0,N/A,,Clear,310,2014-01-05 19:32:00
1:52 PM,-10.8,-20.6,62,30.32,7.0,WNW,15.0,26.5,N/A,,Scattered Clouds,300,2014-01-05 19:52:00
2:13 PM,-11.2,-20.9,62,30.33,10.0,WNW,16.1,23.0,N/A,,Scattered Clouds,300,2014-01-05 20:13:00
2:32 PM,-11.6,-21.1,63,30.33,10.0,WNW,18.4,24.2,N/A,,Clear,300,2014-01-05 20:32:00
2:53 PM,-12.1,-22.2,61,30.33,10.0,WNW,17.3,25.3,N/A,,Clear,290,2014-01-05 20:53:00
3:12 PM,-12.6,-23.1,60,30.34,10.0,WNW,17.3,27.6,N/A,,Clear,300,2014-01-05 21:12:00
3:32 PM,-13.2,-23.6,60,30.35,10.0,NW,16.1,27.6,N/A,,Clear,310,2014-01-05 21:32:00
3:52 PM,-13.7,-23.8,61,30.35,10.0,WNW,18.4,24.2,N/A,,Clear,290,2014-01-05 21:52:00
4:12 PM,-14.6,-24.9,60,30.35,10.0,WNW,17.3,24.2,N/A,,Clear,290,2014-01-05 22:12:00
4:32 PM,-15.2,-25.6,59,30.36,10.0,WNW,16.1,23.0,N/A,,Clear,300,2014-01-05 22:32:00
4:51 PM,-16.1,-26.5,59,30.36,10.0,WNW,15.0,23.0,N/A,,Clear,300,2014-01-05 22:51:00
5:12 PM,-16.6,-26.3,61,30.36,10.0,WNW,12.7,24.2,N/A,,Clear,300,2014-01-05 23:12:00
5:32 PM,-17.1,-25.8,65,30.36,10.0,WNW,13.8,-,N/A,,Clear,290,2014-01-05 23:32:00
5:52 PM,-17.5,-26.5,64,30.37,10.0,WNW,15.0,21.9,N/A,,Clear,300,2014-01-05 23:52:00
6:13 PM,-18.0,-28.3,60,30.36,10.0,WNW,12.7,20.7,N/A,,Clear,300,2014-01-06 00:13:00
6:33 PM,-18.4,-28.5,60,30.36,10.0,WNW,13.8,-,N/A,,Clear,300,2014-01-06 00:33:00
6:52 PM,-18.8,-28.3,62,30.36,10.0,WNW,11.5,-,N/A,,Clear,300,2014-01-06 00:52:00
7:12 PM,-19.3,-28.3,63,30.36,10.0,WNW,11.5,17.3,N/A,,Clear,290,2014-01-06 01:12:00
7:33 PM,-19.5,-28.5,63,30.36,10.0,WNW,10.4,-,N/A,,Clear,290,2014-01-06 01:33:00
7:52 PM,-19.7,-28.3,65,30.36,10.0,WNW,13.8,-,N/A,,Clear,290,2014-01-06 01:52:00
8:12 PM,-20.2,-28.5,66,30.36,10.0,WNW,12.7,-,N/A,,Clear,290,2014-01-06 02:12:00
8:33 PM,-20.4,-28.5,66,30.36,10.0,WNW,11.5,-,N/A,,Clear,290,2014-01-06 02:33:00
8:52 PM,-20.7,-28.5,67,30.36,10.0,WNW,10.4,-,N/A,,Clear,290,2014-01-06 02:52:00
9:11 PM,-21.1,-29.2,66,30.35,10.0,WNW,11.5,16.1,N/A,,Clear,290,2014-01-06 03:11:00
9:32 PM,-21.3,-29.6,66,30.34,10.0,WNW,11.5,-,N/A,,Clear,290,2014-01-06 03:32:00
9:52 PM,-22.0,-30.1,66,30.34,10.0,WNW,10.4,-,N/A,,Clear,290,2014-01-06 03:52:00
10:12 PM,-22.5,-30.3,67,30.33,10.0,WNW,9.2,-,N/A,,Clear,290,2014-01-06 04:12:00
10:32 PM,-22.4,-30.3,67,30.33,7.0,WNW,11.5,-,N/A,,Clear,300,2014-01-06 04:32:00
10:52 PM,-22.2,-30.1,67,30.33,10.0,WNW,12.7,17.3,N/A,,Scattered Clouds,290,2014-01-06 04:52:00
11:12 PM,-22.2,-30.5,65,30.32,7.0,WNW,15.0,19.6,N/A,,Mostly Cloudy,290,2014-01-06 05:12:00
11:32 PM,-22.5,-31.2,64,30.31,10.0,WNW,13.8,19.6,N/A,,Scattered Clouds,290,2014-01-06 05:32:00
11:53 PM,-22.4,-30.8,65,30.31,10.0,WNW,13.8,17.3,N/A,,Mostly Cloudy,290,2014-01-06 05:53:00